Dewpoint
32 25 22 22 22 21 19 19 18 17 19 24 23 22 22 21 21 20 21 20 20 20 20 24 26 28 26 22 19 21 21 22 23 24 23 25 25 25 23 24 22 22 21 22
28 25 24 22 20 21 21 18 16 16 20 22 22 23 23 22 21 21 21 21 21 20 20 25 26 27 25 21 19 19 20 21 22 23 22 21 22 25 23 24 23 23 23 22
21 21 24 23 22 21 21 20 17 17 19 22 20 21 23 23 22 22 22 21 20 20 21 23 24 26 24 20 18 18 20 20 21 23 23 20 21 21 20 22 23 24 24 25
22 22 21 21 19 19 16 19 22 21 21 20 20 14 16 17 16 19 19 18 18 20 23 23 23 25 23 20 19 18 19 20 20 21 22 18 17 16 18 20 25 25 25 22
19 23 23 23 21 22 21 25 24 24 24 25 22 19 15 16 15 15 15 18 19 21 23 23 22 23 23 22 20 19 19 19 19 20 21 20 19 18 17 21 22 21 23 23
21 24 25 24 24 25 23 22 21 20 20 18 16 15 12 15 16 15 16 16 16 26 25 23 22 23 23 23 22 21 19 19 19 20 21 19 18 19 18 19 20 22 22 21
21 20 24 25 23 24 23 21 21 19 20 16 14 14 12 16 13 13 13 12 15 27 25 23 22 22 22 22 23 23 20 18 20 21 20 20 19 18 16 17 19 19 18 17
15 12 21 23 21 22 23 22 23 14 10 10 22 16 15 17 16 15 13 13 24 25 26 25 23 22 21 22 22 22 22 18 20 21 21 20 20 20 19 19 18 17 16 15
14 12 22 23 22 22 22 21 23 23 18 20 13 13 16 20 18 16 14 16 21 25 26 27 25 23 22 22 22 22 21 20 19 20 20 19 19 19 18 17 14 14 13 10
16 14 18 21 20 21 20 22 20 23 12 10 9 11 12 15 14 17 19 18 21 23 25 26 26 25 23 22 21 21 21 21 20 20 19 18 18 18 16 14 12 11 11 9
20 20 16 19 18 17 18 19 19 17 24 14 10 10 13 15 18 19 19 20 22 24 23 24 25 25 23 22 21 21 22 22 21 19 19 18 18 16 13 11 11 10 11 11
26 26 24 15 16 16 17 17 16 14 12 17 14 13 14 16 17 15 16 17 18 23 25 24 24 24 23 21 20 20 22 22 22 19 19 17 15 12 9 7 8 10 10 11
30 26 26 20 20 19 16 17 16 16 16 15 15 12 12 12 11 13 14 18 20 21 25 26 24 22 21 21 20 19 20 21 21 19 18 14 12 9 6 5 7 9 10 10
36 32 28 22 21 21 18 16 16 16 16 15 14 13 13 14 13 14 15 16 19 22 21 23 25 23 21 20 19 17 19 21 20 18 15 12 9 6 4 5 7 7 8 8
37 31 30 29 28 28 27 23 21 19 18 16 14 13 14 14 14 15 15 14 14 16 17 20 22 25 23 21 18 18 18 20 19 16 13 9 7 5 6 10 11 11 10 7
37 32 32 30 30 28 26 24 24 24 23 20 19 18 17 15 15 16 15 16 17 19 20 21 22 23 25 23 18 17 17 19 18 14 11 6 8 10 12 12 12 11 11 10
34 32 30 27 30 30 27 30 29 28 27 24 21 22 21 19 18 19 19 20 21 23 24 24 24 24 25 25 20 17 17 21 19 16 14 11 11 11 11 11 11 10 10 9
35 33 32 28 29 21 28 30 30 29 28 28 27 27 27 26 24 24 27 27 26 26 27 27 27 26 27 26 21 19 21 20 18 16 14 12 10 11 11 10 10 10 10 10
36 34 30 27 27 26 27 28 27 27 27 29 28 28 28 28 28 28 28 28 28 29 29 29 29 29 28 24 20 20 19 17 14 13 12 11 11 11 10 10 10 11 11 10
36 35 32 30 26 23 26 28 28 26 23 28 27 28 28 29 27 28 29 29 28 29 29 28 29 28 25 21 18 18 16 14 12 12 10 10 11 10 10 10 10 11 11 10
30 31 29 30 28 29 33 31 29 24 24 26 27 27 27 26 27 27 27 26 27 27 27 28 26 25 22 18 18 16 14 12 13 12 10 10 10 9 10 9 9 9 9 9
28 27 27 26 24 22 35 31 28 33 37 37 36 37 37 38 38 36 32 29 26 26 23 25 23 21 19 19 18 15 13 13 12 11 9 9 9 9 9 8 7 5 7 6
22 24 19 23 25 32 34 30 25 36 34 34 35 35 35 35 36 36 36 35 32 27 25 21 21 18 15 18 18 16 14 12 11 9 8 6 6 5 5 5 3 4 5 7
16 17 19 20 28 21 12 16 26 26 25 25 26 27 29 30 32 33 32 32 33 27 27 19 18 16 14 15 17 16 14 12 8 7 5 3 3 2 3 5 5 6 5 7
13 10 10 9 8 11 15 18 17 18 20 23 26 27 26 27 28 32 34 35 35 32 23 19 19 19 19 16 16 16 11 9 7 5 3 2 2 2 3 5 6 7 9 9
11 9 7 7 10 10 11 17 20 18 17 19 24 24 24 26 26 27 28 28 28 29 28 22 20 20 19 16 15 12 10 8 6 5 2 1 1 2 3 5 7 12 12 14
Lifted_Index
5 4 4 3 4 4 4 3 3 3 4 4 5 5 6 6 6 6 5 5 5 6 8 9 10 10 11 11 12 12 12 13 13 14 14 15 16 18 19 20 21 21 21 21
5 4 4 4 4 4 4 3 3 4 4 5 5 5 6 6 6 6 6 5 5 6 7 9 9 10 11 11 12 12 12 12 13 14 15 16 17 18 19 20 21 21 21 21
5 5 5 4 4 4 4 3 4 4 4 5 5 5 6 6 6 6 6 5 5 6 7 8 9 10 10 11 11 11 11 12 12 14 15 16 17 18 18 19 20 21 21 21
5 5 5 4 4 4 4 4 4 4 4 4 4 4 5 6 6 6 5 5 5 6 7 8 9 9 10 10 10 11 11 11 12 13 14 15 15 16 17 18 20 21 21 21
5 5 5 5 4 4 4 4 4 4 4 4 4 4 4 5 6 6 5 5 5 5 6 7 8 9 9 9 10 10 11 11 12 13 13 13 14 15 17 18 19 20 21 21
4 5 5 5 4 4 4 4 3 3 3 3 4 4 4 5 6 6 6 6 5 6 6 7 8 8 9 9 9 10 10 11 12 13 13 13 13 15 16 17 19 20 21 21
4 4 4 4 4 4 4 3 2 2 2 2 3 4 5 6 7 7 6 6 6 6 6 6 7 7 8 8 8 9 10 11 12 12 13 13 13 14 15 17 18 19 20 21
3 3 4 4 4 4 3 3 2 1 1 2 3 4 5 7 7 6 6 6 6 6 7 7 7 7 7 7 8 8 9 10 11 12 12 12 13 13 14 16 18 19 20 21
2 3 4 4 4 4 4 4 3 2 2 2 3 4 6 6 6 6 6 6 6 6 6 6 7 7 7 7 7 8 8 9 10 11 11 12 12 13 14 16 18 19 20 21
3 3 3 4 4 4 4 4 3 3 2 1 2 3 5 6 6 6 6 5 5 6 5 6 7 7 7 7 7 8 8 9 10 10 11 11 12 13 14 16 18 19 20 21
3 3 3 4 4 4 4 4 3 3 2 2 2 3 5 6 6 6 6 5 5 5 5 6 7 7 7 7 8 8 8 8 9 10 10 11 11 12 14 16 18 20 21 21
4 4 4 4 4 4 4 4 4 3 3 3 2 3 6 6 6 6 6 6 6 6 6 6 7 7 7 7 8 8 8 8 8 9 10 10 11 12 13 16 18 20 21 21
5 5 4 4 4 5 4 5 4 4 4 3 3 4 5 6 6 6 6 6 6 6 6 6 7 7 7 7 7 8 8 8 8 9 10 10 10 11 13 16 19 20 21 21
3 3 3 3 3 3 4 4 4 4 3 4 4 4 5 6 6 6 6 5 5 5 5 5 6 7 7 7 7 7 8 8 9 9 9 10 10 12 14 17 19 20 21 20
2 2 2 2 2 2 2 3 3 3 3 3 4 4 5 6 6 6 6 5 4 4 4 4 5 6 7 7 7 7 8 8 8 9 9 10 11 12 15 17 19 20 20 19
2 2 2 2 2 2 2 2 2 2 2 2 3 4 4 4 4 5 4 4 3 3 3 3 4 5 6 7 7 7 8 8 8 9 9 10 11 12 14 16 18 19 19 18
2 2 2 2 2 2 2 2 2 2 2 2 3 3 3 3 3 3 3 2 2 3 3 3 3 4 5 6 7 7 7 7 8 8 8 9 10 11 13 15 17 18 18 18
1 1 1 1 1 1 2 3 3 3 3 3 3 3 3 3 3 2 2 2 2 3 3 3 4 4 4 5 5 6 6 6 6 6 6 7 8 10 12 14 16 17 17 17
0 0 0 1 1 1 2 2 3 3 3 4 4 4 3 2 2 2 2 2 2 3 3 3 4 4 4 4 4 4 4 4 4 4 4 6 7 9 11 13 16 17 16 16
-0 -0 -0 0 0 0 1 1 1 2 2 3 3 3 2 1 1 1 2 2 2 2 2 3 3 3 3 3 3 3 3 3 3 3 4 5 6 8 10 13 15 16 16 15
-0 -0 -0 0 0 0 0 0 0 1 1 1 1 1 1 0 1 1 2 2 3 3 3 3 3 3 3 3 3 3 3 3 3 3 4 5 6 8 11 14 15 15 15 15
0 0 0 1 1 1 1 1 2 2 2 2 1 1 1 1 1 1 2 2 3 3 3 3 3 3 4 4 3 3 3 3 3 3 3 5 7 10 13 15 15 15 15 15
3 3 3 3 3 3 2 3 5 5 5 4 4 4 4 3 3 3 2 2 2 3 3 3 3 3 3 3 3 3 3 3 3 3 3 5 7 10 13 15 15 15 15 15
6 6 6 6 6 6 5 6 8 8 8 7 7 7 7 6 6 6 4 3 3 4 4 3 3 3 3 3 3 3 3 3 4 4 4 5 8 11 14 15 15 15 14 14
8 8 8 8 8 9 8 9 10 10 10 10 9 9 9 9 9 9 8 7 6 6 6 6 5 5 5 5 5 4 4 4 4 4 5 7 9 12 14 15 15 15 15 15
8 8 8 8 9 10 10 10 11 11 11 11 10 10 11 11 11 10 10 9 9 8 8 8 7 7 6 6 6 6 5 4 4 5 6 7 10 13 15 15 15 15 15 16